Wetterdaten: Sonntag, 13.11.2011
Datum Zeit Temp. A. Feuchte A. Luftdruck Regen Wind Richtung Richtung Sonnenschein UV Solar Windben
13.11.2011 00:00 1,6 C 92 % 1033,2 hPa 0,0 mm 0,0 km/h (0 Bft) O-SO 112 0 min 0 UV-I 0 W/m 3,2 km/h (1 Bft)
13.11.2011 00:10 1,5 C 92 % 1033,0 hPa 0,0 mm 0,0 km/h (0 Bft) O-SO 112 0 min 0 UV-I 0 W/m 4,8 km/h (1 Bft)
13.11.2011 00:20 1,6 C 92 % 1033,2 hPa 0,0 mm 0,0 km/h (0 Bft) O-SO 112 0 min 0 UV-I 0 W/m 6,4 km/h (2 Bft)
13.11.2011 00:30 1,6 C 92 % 1033,0 hPa 0,0 mm 1,6 km/h (1 Bft) O-SO 112 0 min 0 UV-I 0 W/m 6,4 km/h (2 Bft)
13.11.2011 00:40 1,6 C 92 % 1033,1 hPa 0,0 mm 1,6 km/h (1 Bft) O-SO 112 0 min 0 UV-I 0 W/m 4,8 km/h (1 Bft)
13.11.2011 00:50 1,6 C 92 % 1033,1 hPa 0,0 mm 0,0 km/h (0 Bft) O-SO 112 0 min 0 UV-I 0 W/m 4,8 km/h (1 Bft)
13.11.2011 01:00 1,4 C 92 % 1033,1 hPa 0,0 mm 0,0 km/h (0 Bft) O-SO 112 0 min 0 UV-I 0 W/m 4,8 km/h (1 Bft)
13.11.2011 01:10 1,3 C 92 % 1033,1 hPa 0,0 mm 1,6 km/h (1 Bft) O-SO 112 0 min 0 UV-I 0 W/m 4,8 km/h (1 Bft)
13.11.2011 01:20 1,3 C 92 % 1033,0 hPa 0,0 mm 1,6 km/h (1 Bft) O-SO 112 0 min 0 UV-I 0 W/m 6,4 km/h (2 Bft)
13.11.2011 01:30 1,3 C 92 % 1032,9 hPa 0,0 mm 1,6 km/h (1 Bft) O-SO 112 0 min 0 UV-I 0 W/m 4,8 km/h (1 Bft)
13.11.2011 01:40 1,3 C 92 % 1032,8 hPa 0,0 mm 1,6 km/h (1 Bft) O-SO 112 0 min 0 UV-I 0 W/m 4,8 km/h (1 Bft)
13.11.2011 01:50 1,2 C 92 % 1032,9 hPa 0,0 mm 0,0 km/h (0 Bft) O-SO 112 0 min 0 UV-I 0 W/m 3,2 km/h (1 Bft)
13.11.2011 02:00 1,1 C 92 % 1032,9 hPa 0,0 mm 1,6 km/h (1 Bft) O-SO 112 0 min 0 UV-I 0 W/m 6,4 km/h (2 Bft)
13.11.2011 02:10 1,0 C 92 % 1033,0 hPa 0,0 mm 0,0 km/h (0 Bft) O-SO 112 0 min 0 UV-I 0 W/m 6,4 km/h (2 Bft)
13.11.2011 02:20 0,9 C 92 % 1033,1 hPa 0,0 mm 0,0 km/h (0 Bft) O-SO 112 0 min 0 UV-I 0 W/m 3,2 km/h (1 Bft)
13.11.2011 02:30 0,9 C 92 % 1033,0 hPa 0,0 mm 0,0 km/h (0 Bft) O-SO 112 0 min 0 UV-I 0 W/m 3,2 km/h (1 Bft)
13.11.2011 02:40 0,7 C 92 % 1032,9 hPa 0,0 mm 1,6 km/h (1 Bft) O-SO 112 0 min 0 UV-I 0 W/m 4,8 km/h (1 Bft)
13.11.2011 02:50 0,7 C 93 % 1032,8 hPa 0,0 mm 1,6 km/h (1 Bft) O-SO 112 0 min 0 UV-I 0 W/m 6,4 km/h (2 Bft)
13.11.2011 03:00 0,8 C 92 % 1032,8 hPa 0,0 mm 0,0 km/h (0 Bft) O-SO 112 0 min 0 UV-I 0 W/m 3,2 km/h (1 Bft)
13.11.2011 03:10 0,7 C 93 % 1032,9 hPa 0,0 mm 0,0 km/h (0 Bft) O-SO 112 0 min 0 UV-I 0 W/m 1,6 km/h (1 Bft)
13.11.2011 03:20 0,6 C 92 % 1032,9 hPa 0,0 mm 0,0 km/h (0 Bft) O-SO 112 0 min 0 UV-I 0 W/m 1,6 km/h (1 Bft)
13.11.2011 03:30 0,3 C 93 % 1032,9 hPa 0,0 mm 0,0 km/h (0 Bft) N 0 0 min 0 UV-I 0 W/m 0,0 km/h (0 Bft)
13.11.2011 03:40 0,2 C 93 % 1032,8 hPa 0,0 mm 0,0 km/h (0 Bft) O-SO 112 0 min 0 UV-I 0 W/m 3,2 km/h (1 Bft)
13.11.2011 03:50 0,2 C 93 % 1032,7 hPa 0,0 mm 0,0 km/h (0 Bft) O-SO 112 0 min 0 UV-I 0 W/m 3,2 km/h (1 Bft)
13.11.2011 04:00 0,2 C 92 % 1032,7 hPa 0,0 mm 0,0 km/h (0 Bft) O-SO 112 0 min 0 UV-I 0 W/m 1,6 km/h (1 Bft)
13.11.2011 04:10 0,1 C 93 % 1032,7 hPa 0,0 mm 0,0 km/h (0 Bft) O-SO 112 0 min 0 UV-I 0 W/m 1,6 km/h (1 Bft)
13.11.2011 04:20 -0,1 C 92 % 1032,8 hPa 0,0 mm 0,0 km/h (0 Bft) N 0 0 min 0 UV-I 0 W/m 0,0 km/h (0 Bft)
13.11.2011 04:30 -0,2 C 93 % 1032,7 hPa 0,0 mm 0,0 km/h (0 Bft) O-SO 112 0 min 0 UV-I 0 W/m 1,6 km/h (1 Bft)
13.11.2011 04:40 -0,1 C 93 % 1032,7 hPa 0,0 mm 0,0 km/h (0 Bft) O-SO 112 0 min 0 UV-I 0 W/m 3,2 km/h (1 Bft)
13.11.2011 04:50 0,1 C 93 % 1032,6 hPa 0,0 mm 0,0 km/h (0 Bft) O-SO 112 0 min 0 UV-I 0 W/m 3,2 km/h (1 Bft)
13.11.2011 05:00 0,1 C 93 % 1032,6 hPa 0,0 mm 1,6 km/h (1 Bft) O-SO 112 0 min 0 UV-I 0 W/m 4,8 km/h (1 Bft)
13.11.2011 05:10 0,3 C 93 % 1032,6 hPa 0,0 mm 0,0 km/h (0 Bft) O-SO 112 0 min 0 UV-I 0 W/m 4,8 km/h (1 Bft)
13.11.2011 05:20 0,2 C 93 % 1032,5 hPa 0,0 mm 0,0 km/h (0 Bft) O-SO 112 0 min 0 UV-I 0 W/m 4,8 km/h (1 Bft)
13.11.2011 05:30 0,2 C 93 % 1032,5 hPa 0,0 mm 0,0 km/h (0 Bft) O-SO 112 0 min 0 UV-I 0 W/m 4,8 km/h (1 Bft)
13.11.2011 05:40 0,1 C 93 % 1032,5 hPa 0,0 mm 0,0 km/h (0 Bft) O-SO 112 0 min 0 UV-I 0 W/m 1,6 km/h (1 Bft)
13.11.2011 05:50 0,0 C 93 % 1032,5 hPa 0,0 mm 0,0 km/h (0 Bft) O-SO 112 0 min 0 UV-I 0 W/m 1,6 km/h (1 Bft)
13.11.2011 06:00 -0,2 C 93 % 1032,6 hPa 0,0 mm 0,0 km/h (0 Bft) O-SO 112 0 min 0 UV-I 0 W/m 3,2 km/h (1 Bft)
13.11.2011 06:10 -0,2 C 93 % 1032,5 hPa 0,0 mm 0,0 km/h (0 Bft) O-SO 112 0 min 0 UV-I 0 W/m 3,2 km/h (1 Bft)
13.11.2011 06:20 -0,1 C 93 % 1032,6 hPa 0,0 mm 0,0 km/h (0 Bft) O-SO 112 0 min 0 UV-I 0 W/m 1,6 km/h (1 Bft)
13.11.2011 06:30 -0,1 C 93 % 1032,5 hPa 0,0 mm 0,0 km/h (0 Bft) O-SO 112 0 min 0 UV-I 0 W/m 1,6 km/h (1 Bft)
13.11.2011 06:40 -0,3 C 93 % 1032,5 hPa 0,0 mm 0,0 km/h (0 Bft) O-SO 112 0 min 0 UV-I 0 W/m 1,6 km/h (1 Bft)
13.11.2011 06:50 -0,4 C 93 % 1032,5 hPa 0,0 mm 0,0 km/h (0 Bft) O-SO 112 0 min 0 UV-I 0 W/m 3,2 km/h (1 Bft)
13.11.2011 07:00 -0,3 C 93 % 1032,6 hPa 0,0 mm 0,0 km/h (0 Bft) O-SO 112 0 min 0 UV-I 0 W/m 1,6 km/h (1 Bft)
13.11.2011 07:10 -0,3 C 93 % 1032,6 hPa 0,0 mm 0,0 km/h (0 Bft) O-SO 112 0 min 0 UV-I 0 W/m 3,2 km/h (1 Bft)
13.11.2011 07:20 -0,2 C 93 % 1032,7 hPa 0,0 mm 0,0 km/h (0 Bft) O-SO 112 0 min 0 UV-I 0 W/m 1,6 km/h (1 Bft)
13.11.2011 07:30 -0,3 C 93 % 1032,7 hPa 0,0 mm 0,0 km/h (0 Bft) O-SO 112 0 min 0 UV-I 0 W/m 3,2 km/h (1 Bft)
13.11.2011 07:40 -0,4 C 93 % 1032,7 hPa 0,0 mm 0,0 km/h (0 Bft) O-SO 112 0 min 0 UV-I 0 W/m 1,6 km/h (1 Bft)
13.11.2011 07:50 -0,4 C 93 % 1032,7 hPa 0,0 mm 0,0 km/h (0 Bft) N 0 0 min 0 UV-I 5 W/m 0,0 km/h (0 Bft)
13.11.2011 08:00 -0,7 C 93 % 1032,7 hPa 0,0 mm 0,0 km/h (0 Bft) O-SO 107 0 min 0 UV-I 9 W/m 0,0 km/h (0 Bft)
13.11.2011 08:10 -0,7 C 93 % 1032,7 hPa 0,0 mm 0,0 km/h (0 Bft) N 0 0 min 0 UV-I 12 W/m 0,0 km/h (0 Bft)
13.11.2011 08:20 -0,8 C 93 % 1032,7 hPa 0,0 mm 0,0 km/h (0 Bft) N 0 0 min 0 UV-I 16 W/m 0,0 km/h (0 Bft)
13.11.2011 08:30 -1,0 C 93 % 1032,8 hPa 0,0 mm 0,0 km/h (0 Bft) N 0 0 min 0 UV-I 19 W/m 0,0 km/h (0 Bft)
13.11.2011 08:40 -0,9 C 93 % 1033,0 hPa 0,0 mm 0,0 km/h (0 Bft) N 0 0 min 0 UV-I 23 W/m 0,0 km/h (0 Bft)
13.11.2011 08:50 -0,8 C 93 % 1032,9 hPa 0,0 mm 0,0 km/h (0 Bft) O-SO 112 0 min 0 UV-I 26 W/m 1,6 km/h (1 Bft)
13.11.2011 09:00 -0,7 C 93 % 1033,1 hPa 0,0 mm 0,0 km/h (0 Bft) N 0 0 min 0 UV-I 28 W/m 0,0 km/h (0 Bft)
13.11.2011 09:10 -0,5 C 93 % 1033,0 hPa 0,0 mm 0,0 km/h (0 Bft) O-SO 112 0 min 0 UV-I 28 W/m 3,2 km/h (1 Bft)
13.11.2011 09:20 -0,1 C 94 % 1032,9 hPa 0,0 mm 0,0 km/h (0 Bft) O-SO 112 0 min 0 UV-I 30 W/m 1,6 km/h (1 Bft)
13.11.2011 09:30 0,3 C 94 % 1032,8 hPa 0,0 mm 0,0 km/h (0 Bft) O-SO 112 0 min 0 UV-I 49 W/m 1,6 km/h (1 Bft)
13.11.2011 09:40 0,8 C 94 % 1032,8 hPa 0,0 mm 0,0 km/h (0 Bft) O-SO 112 10 min 1 UV-I 171 W/m 1,6 km/h (1 Bft)
13.11.2011 09:50 1,3 C 94 % 1032,8 hPa 0,0 mm 0,0 km/h (0 Bft) O-SO 112 10 min 1 UV-I 207 W/m 3,2 km/h (1 Bft)
13.11.2011 10:00 2,0 C 94 % 1032,7 hPa 0,0 mm 0,0 km/h (0 Bft) O-SO 112 10 min 1 UV-I 211 W/m 4,8 km/h (1 Bft)
13.11.2011 10:10 2,7 C 94 % 1032,7 hPa 0,0 mm 1,6 km/h (1 Bft) O-SO 112 10 min 1 UV-I 230 W/m 6,4 km/h (2 Bft)
13.11.2011 10:20 3,3 C 94 % 1032,6 hPa 0,0 mm 1,6 km/h (1 Bft) O 90 10 min 1 UV-I 258 W/m 6,4 km/h (2 Bft)
13.11.2011 10:30 3,7 C 94 % 1032,6 hPa 0,0 mm 1,6 km/h (1 Bft) O 90 10 min 1 UV-I 285 W/m 6,4 km/h (2 Bft)
13.11.2011 10:40 4,3 C 93 % 1032,7 hPa 0,0 mm 1,6 km/h (1 Bft) O-SO 112 10 min 1 UV-I 297 W/m 6,4 km/h (2 Bft)
13.11.2011 10:50 4,7 C 93 % 1032,8 hPa 0,0 mm 1,6 km/h (1 Bft) O-SO 112 10 min 1 UV-I 297 W/m 9,7 km/h (2 Bft)
13.11.2011 11:00 5,0 C 91 % 1032,9 hPa 0,0 mm 1,6 km/h (1 Bft) O-SO 112 10 min 1 UV-I 295 W/m 4,8 km/h (1 Bft)
13.11.2011 11:10 5,1 C 90 % 1032,9 hPa 0,0 mm 1,6 km/h (1 Bft) O-SO 112 10 min 1 UV-I 299 W/m 6,4 km/h (2 Bft)
13.11.2011 11:20 5,6 C 89 % 1032,9 hPa 0,0 mm 1,6 km/h (1 Bft) O-SO 112 10 min 1 UV-I 292 W/m 4,8 km/h (1 Bft)
13.11.2011 11:30 6,0 C 86 % 1032,8 hPa 0,0 mm 1,6 km/h (1 Bft) O-SO 112 10 min 1 UV-I 318 W/m 6,4 km/h (2 Bft)
13.11.2011 11:40 6,3 C 85 % 1032,7 hPa 0,0 mm 0,0 km/h (0 Bft) O-SO 112 10 min 1 UV-I 327 W/m 4,8 km/h (1 Bft)
13.11.2011 11:50 6,5 C 84 % 1032,6 hPa 0,0 mm 0,0 km/h (0 Bft) O-SO 112 10 min 1 UV-I 336 W/m 4,8 km/h (1 Bft)
13.11.2011 12:00 6,5 C 83 % 1032,5 hPa 0,0 mm 0,0 km/h (0 Bft) O-SO 112 10 min 1 UV-I 339 W/m 3,2 km/h (1 Bft)
13.11.2011 12:10 6,8 C 82 % 1032,4 hPa 0,0 mm 0,0 km/h (0 Bft) O-SO 112 10 min 1 UV-I 336 W/m 4,8 km/h (1 Bft)
13.11.2011 12:20 7,4 C 80 % 1032,4 hPa 0,0 mm 0,0 km/h (0 Bft) O-SO 112 10 min 1 UV-I 329 W/m 4,8 km/h (1 Bft)
13.11.2011 12:30 7,8 C 78 % 1032,2 hPa 0,0 mm 0,0 km/h (0 Bft) O-SO 112 10 min 1 UV-I 341 W/m 1,6 km/h (1 Bft)
13.11.2011 12:40 8,0 C 77 % 1032,1 hPa 0,0 mm 1,6 km/h (1 Bft) O-SO 112 10 min 1 UV-I 350 W/m 6,4 km/h (2 Bft)
13.11.2011 12:50 8,2 C 77 % 1031,9 hPa 0,0 mm 0,0 km/h (0 Bft) O-SO 112 10 min 1 UV-I 355 W/m 6,4 km/h (2 Bft)
13.11.2011 13:00 8,6 C 75 % 1031,9 hPa 0,0 mm 1,6 km/h (1 Bft) O-SO 112 10 min 1 UV-I 350 W/m 4,8 km/h (1 Bft)
13.11.2011 13:10 8,8 C 75 % 1031,9 hPa 0,0 mm 0,0 km/h (0 Bft) O-SO 112 10 min 1 UV-I 336 W/m 3,2 km/h (1 Bft)
13.11.2011 13:20 9,0 C 74 % 1031,7 hPa 0,0 mm 1,6 km/h (1 Bft) O-SO 112 10 min 1 UV-I 309 W/m 4,8 km/h (1 Bft)
13.11.2011 13:30 9,2 C 72 % 1031,6 hPa 0,0 mm 1,6 km/h (1 Bft) O 90 10 min 1 UV-I 292 W/m 6,4 km/h (2 Bft)
13.11.2011 13:40 9,4 C 73 % 1031,6 hPa 0,0 mm 0,0 km/h (0 Bft) O 90 10 min 1 UV-I 304 W/m 3,2 km/h (1 Bft)
13.11.2011 13:50 9,6 C 72 % 1031,5 hPa 0,0 mm 0,0 km/h (0 Bft) O 90 10 min 1 UV-I 306 W/m 4,8 km/h (1 Bft)
13.11.2011 14:00 9,8 C 71 % 1031,5 hPa 0,0 mm 1,6 km/h (1 Bft) O 90 10 min 1 UV-I 302 W/m 6,4 km/h (2 Bft)
13.11.2011 14:10 9,8 C 71 % 1031,4 hPa 0,0 mm 0,0 km/h (0 Bft) O 90 10 min 1 UV-I 253 W/m 4,8 km/h (1 Bft)
13.11.2011 14:20 10,0 C 72 % 1031,4 hPa 0,0 mm 0,0 km/h (0 Bft) O 90 10 min 1 UV-I 163 W/m 3,2 km/h (1 Bft)
13.11.2011 14:30 9,8 C 71 % 1031,3 hPa 0,0 mm 1,6 km/h (1 Bft) O 90 10 min 1 UV-I 153 W/m 4,8 km/h (1 Bft)
13.11.2011 14:40 10,1 C 72 % 1031,3 hPa 0,0 mm 0,0 km/h (0 Bft) O 90 0 min 1 UV-I 125 W/m 3,2 km/h (1 Bft)
13.11.2011 14:50 9,9 C 73 % 1031,4 hPa 0,0 mm 1,6 km/h (1 Bft) O 90 10 min 1 UV-I 186 W/m 6,4 km/h (2 Bft)
13.11.2011 15:00 9,8 C 72 % 1031,5 hPa 0,0 mm 1,6 km/h (1 Bft) O 90 10 min 1 UV-I 142 W/m 6,4 km/h (2 Bft)
13.11.2011 15:10 9,7 C 73 % 1031,3 hPa 0,0 mm 0,0 km/h (0 Bft) O 90 10 min 1 UV-I 123 W/m 4,8 km/h (1 Bft)
13.11.2011 15:20 9,6 C 74 % 1031,4 hPa 0,0 mm 1,6 km/h (1 Bft) O 90 0 min 0 UV-I 33 W/m 6,4 km/h (2 Bft)
13.11.2011 15:30 9,3 C 76 % 1031,3 hPa 0,0 mm 1,6 km/h (1 Bft) O 90 0 min 0 UV-I 26 W/m 4,8 km/h (1 Bft)
13.11.2011 15:40 9,1 C 77 % 1031,3 hPa 0,0 mm 0,0 km/h (0 Bft) O 90 0 min 0 UV-I 25 W/m 3,2 km/h (1 Bft)
13.11.2011 15:50 8,9 C 78 % 1031,2 hPa 0,0 mm 1,6 km/h (1 Bft) O 90 0 min 0 UV-I 25 W/m 8,0 km/h (2 Bft)
13.11.2011 16:00 8,7 C 79 % 1031,3 hPa 0,0 mm 1,6 km/h (1 Bft) O 90 0 min 0 UV-I 21 W/m 4,8 km/h (1 Bft)
13.11.2011 16:10 8,5 C 79 % 1031,1 hPa 0,0 mm 0,0 km/h (0 Bft) O 90 0 min 0 UV-I 19 W/m 3,2 km/h (1 Bft)
13.11.2011 16:20 8,4 C 80 % 1031,1 hPa 0,0 mm 0,0 km/h (0 Bft) O 90 10 min 0 UV-I 18 W/m 3,2 km/h (1 Bft)
13.11.2011 16:30 8,1 C 80 % 1031,1 hPa 0,0 mm 0,0 km/h (0 Bft) O 90 0 min 0 UV-I 12 W/m 3,2 km/h (1 Bft)
13.11.2011 16:40 7,6 C 82 % 1031,1 hPa 0,0 mm 1,6 km/h (1 Bft) O 90 0 min 0 UV-I 5 W/m 6,4 km/h (2 Bft)
13.11.2011 16:50 7,4 C 82 % 1031,1 hPa 0,0 mm 0,0 km/h (0 Bft) O 90 0 min 0 UV-I 0 W/m 3,2 km/h (1 Bft)
13.11.2011 17:00 7,1 C 83 % 1031,0 hPa 0,0 mm 0,0 km/h (0 Bft) O 90 0 min 0 UV-I 0 W/m 3,2 km/h (1 Bft)
13.11.2011 17:10 6,7 C 84 % 1030,9 hPa 0,0 mm 0,0 km/h (0 Bft) O 90 0 min 0 UV-I 0 W/m 1,6 km/h (1 Bft)
13.11.2011 17:20 6,3 C 84 % 1031,0 hPa 0,0 mm 0,0 km/h (0 Bft) O 90 0 min 0 UV-I 0 W/m 3,2 km/h (1 Bft)
13.11.2011 17:30 6,1 C 84 % 1031,0 hPa 0,0 mm 0,0 km/h (0 Bft) O 90 0 min 0 UV-I 0 W/m 1,6 km/h (1 Bft)
13.11.2011 17:40 5,8 C 84 % 1031,1 hPa 0,0 mm 0,0 km/h (0 Bft) O 90 0 min 0 UV-I 0 W/m 3,2 km/h (1 Bft)
13.11.2011 17:50 5,5 C 85 % 1031,1 hPa 0,0 mm 0,0 km/h (0 Bft) O 90 0 min 0 UV-I 0 W/m 1,6 km/h (1 Bft)
13.11.2011 18:00 5,2 C 85 % 1031,2 hPa 0,0 mm 0,0 km/h (0 Bft) O 90 0 min 0 UV-I 0 W/m 1,6 km/h (1 Bft)
13.11.2011 18:10 5,1 C 86 % 1031,1 hPa 0,0 mm 0,0 km/h (0 Bft) O 90 0 min 0 UV-I 0 W/m 1,6 km/h (1 Bft)
13.11.2011 18:20 4,8 C 86 % 1031,2 hPa 0,0 mm 0,0 km/h (0 Bft) O 90 0 min 0 UV-I 0 W/m 3,2 km/h (1 Bft)
13.11.2011 18:30 4,7 C 86 % 1031,0 hPa 0,0 mm 0,0 km/h (0 Bft) O 90 0 min 0 UV-I 0 W/m 3,2 km/h (1 Bft)
13.11.2011 18:40 4,7 C 85 % 1030,9 hPa 0,0 mm 0,0 km/h (0 Bft) O 90 0 min 0 UV-I 0 W/m 1,6 km/h (1 Bft)
13.11.2011 18:50 4,6 C 85 % 1031,0 hPa 0,0 mm 0,0 km/h (0 Bft) O 90 0 min 0 UV-I 0 W/m 3,2 km/h (1 Bft)
13.11.2011 19:00 4,4 C 85 % 1031,1 hPa 0,0 mm 0,0 km/h (0 Bft) N 0 0 min 0 UV-I 0 W/m 0,0 km/h (0 Bft)
13.11.2011 19:10 4,2 C 85 % 1031,1 hPa 0,0 mm 0,0 km/h (0 Bft) O 90 0 min 0 UV-I 0 W/m 1,6 km/h (1 Bft)
13.11.2011 19:20 4,0 C 85 % 1030,9 hPa 0,0 mm 1,6 km/h (1 Bft) O 90 0 min 0 UV-I 0 W/m 4,8 km/h (1 Bft)
13.11.2011 19:30 3,9 C 85 % 1030,7 hPa 0,0 mm 0,0 km/h (0 Bft) O 90 0 min 0 UV-I 0 W/m 3,2 km/h (1 Bft)
13.11.2011 19:40 3,9 C 85 % 1030,8 hPa 0,0 mm 0,0 km/h (0 Bft) N 0 0 min 0 UV-I 0 W/m 0,0 km/h (0 Bft)
13.11.2011 19:50 3,6 C 85 % 1030,6 hPa 0,0 mm 0,0 km/h (0 Bft) N 0 0 min 0 UV-I 0 W/m 0,0 km/h (0 Bft)
13.11.2011 20:00 3,3 C 85 % 1030,7 hPa 0,0 mm 0,0 km/h (0 Bft) N 0 0 min 0 UV-I 0 W/m 0,0 km/h (0 Bft)
13.11.2011 20:10 3,1 C 85 % 1030,4 hPa 0,0 mm 0,0 km/h (0 Bft) N 0 0 min 0 UV-I 0 W/m 0,0 km/h (0 Bft)
13.11.2011 20:20 2,8 C 86 % 1030,4 hPa 0,0 mm 0,0 km/h (0 Bft) N 0 0 min 0 UV-I 0 W/m 0,0 km/h (0 Bft)
13.11.2011 20:30 2,7 C 86 % 1030,2 hPa 0,0 mm 0,0 km/h (0 Bft) N 0 0 min 0 UV-I 0 W/m 0,0 km/h (0 Bft)
13.11.2011 20:40 2,6 C 86 % 1030,3 hPa 0,0 mm 0,0 km/h (0 Bft) N 0 0 min 0 UV-I 0 W/m 0,0 km/h (0 Bft)
13.11.2011 20:50 2,4 C 87 % 1030,2 hPa 0,0 mm 0,0 km/h (0 Bft) O 90 0 min 0 UV-I 0 W/m 1,6 km/h (1 Bft)
13.11.2011 21:00 2,6 C 87 % 1030,2 hPa 0,0 mm 0,0 km/h (0 Bft) O 90 0 min 0 UV-I 0 W/m 8,0 km/h (2 Bft)
13.11.2011 21:10 3,0 C 87 % 1030,1 hPa 0,0 mm 0,0 km/h (0 Bft) O 90 0 min 0 UV-I 0 W/m 3,2 km/h (1 Bft)
13.11.2011 21:20 3,3 C 86 % 1030,0 hPa 0,0 mm 0,0 km/h (0 Bft) O 90 0 min 0 UV-I 0 W/m 3,2 km/h (1 Bft)
13.11.2011 21:30 3,3 C 85 % 1029,9 hPa 0,0 mm 0,0 km/h (0 Bft) O 90 0 min 0 UV-I 0 W/m 4,8 km/h (1 Bft)
13.11.2011 21:40 3,4 C 85 % 1029,8 hPa 0,0 mm 0,0 km/h (0 Bft) O 90 0 min 0 UV-I 0 W/m 6,4 km/h (2 Bft)
13.11.2011 21:50 3,7 C 83 % 1029,9 hPa 0,0 mm 0,0 km/h (0 Bft) O 90 0 min 0 UV-I 0 W/m 1,6 km/h (1 Bft)
13.11.2011 22:00 3,6 C 83 % 1029,7 hPa 0,0 mm 0,0 km/h (0 Bft) O 90 0 min 0 UV-I 0 W/m 1,6 km/h (1 Bft)
13.11.2011 22:10 3,5 C 84 % 1029,7 hPa 0,0 mm 0,0 km/h (0 Bft) O 90 0 min 0 UV-I 0 W/m 1,6 km/h (1 Bft)
13.11.2011 22:20 3,7 C 83 % 1029,8 hPa 0,0 mm 0,0 km/h (0 Bft) O 90 0 min 0 UV-I 0 W/m 1,6 km/h (1 Bft)
13.11.2011 22:30 3,8 C 83 % 1029,7 hPa 0,0 mm 0,0 km/h (0 Bft) O 90 0 min 0 UV-I 0 W/m 1,6 km/h (1 Bft)
13.11.2011 22:40 3,6 C 83 % 1029,7 hPa 0,0 mm 0,0 km/h (0 Bft) N 0 0 min 0 UV-I 0 W/m 0,0 km/h (0 Bft)
13.11.2011 22:50 3,3 C 83 % 1029,6 hPa 0,0 mm 0,0 km/h (0 Bft) N 0 0 min 0 UV-I 0 W/m 0,0 km/h (0 Bft)
13.11.2011 23:00 2,9 C 84 % 1029,6 hPa 0,0 mm 0,0 km/h (0 Bft) N 0 0 min 0 UV-I 0 W/m 0,0 km/h (0 Bft)
13.11.2011 23:10 2,6 C 85 % 1029,5 hPa 0,0 mm 0,0 km/h (0 Bft) N 0 0 min 0 UV-I 0 W/m 0,0 km/h (0 Bft)
13.11.2011 23:20 2,3 C 86 % 1029,5 hPa 0,0 mm 0,0 km/h (0 Bft) N 0 0 min 0 UV-I 0 W/m 0,0 km/h (0 Bft)
13.11.2011 23:30 2,1 C 87 % 1029,6 hPa 0,0 mm 0,0 km/h (0 Bft) N 0 0 min 0 UV-I 0 W/m 0,0 km/h (0 Bft)
13.11.2011 23:40 2,0 C 88 % 1029,6 hPa 0,0 mm 0,0 km/h (0 Bft) N 0 0 min 0 UV-I 0 W/m 0,0 km/h (0 Bft)
13.11.2011 23:50 1,9 C 88 % 1029,6 hPa 0,0 mm 0,0 km/h (0 Bft) N 0 0 min 0 UV-I 0 W/m 0,0 km/h (0 Bft)
_ Min-Zeit 08:30 14:00 23:10 - 00:00 - - - - - 03:30
Minimum _ -1,0 C 71 % 1029,5 hPa - 0,0 km/h (0 Bft) - - - - - 0,0 km/h (0 Bft)
_ Max-Zeit 14:20 09:20 00:00 00:00 00:30 - - 09:40 11:40 12:50 10:50
Maximum _ 10,2 C 94 % 1033,2 hPa 0,0 mm 1,6 km/h
O-SO (1 Bft)
- - 10 min 1 UV-I 355 W/m 9,7 km/h
O-SO (2 Bft)
Durchschnitt _ 3,5 C 87 % 1031,8 hPa #0,0 mm 0,4 km/h (0 Bft) O-SO - #5:40 h 1 UV-I 179 W/m 3,2 km/h (1 Bft)